This is the latest recevied weather packets stored in our database for station/object IW4DZV-13. If no packets are shown the sender has not sent any weather packets the latest 10 day(s).
| Time | Temp. | Humidity | Pressure | Rain* | Wind** | Luminosity | Snow |
|---|---|---|---|---|---|---|---|
| 1777644021 | 18.89° C | 29% | 1025.2 hPa | 0 mm | - | 49 W/m² | - |
| 1777643119 | 18.89° C | 26% | 1025.4 hPa | 0 mm | - | 564 W/m² | - |
| 1777642219 | 19.44° C | 28% | 1025.7 hPa | 0 mm | - | 197 W/m² | - |
| 1777641335 | 20° C | 27% | 1025.8 hPa | 0 mm | - | 752 W/m² | - |
| 1777640417 | 19.44° C | 26% | 1025.9 hPa | 0 mm | - | 773 W/m² | - |
| 1777639517 | 19.44° C | 26% | 1026 hPa | 0 mm | - | 802 W/m² | - |
| 1777638616 | 19.44° C | 28% | 1026.2 hPa | 0 mm | - | 819 W/m² | - |
| 1777637714 | 18.89° C | 27% | 1026.3 hPa | 0 mm | - | 840 W/m² | - |
| 1777636821 | 19.44° C | 24% | 1026.4 hPa | 0 mm | - | 853 W/m² | - |
| 1777635914 | 18.89° C | 26% | 1026.5 hPa | 0 mm | - | 861 W/m² | - |
| 1777635015 | 18.89° C | 28% | 1026.7 hPa | 0 mm | - | 867 W/m² | - |
| 1777634112 | 19.44° C | 27% | 1026.8 hPa | 0 mm | - | 868 W/m² | - |
| 1777633211 | 18.89° C | 29% | 1027 hPa | 0 mm | - | 868 W/m² | - |
| 1777632318 | 18.89° C | 28% | 1027.1 hPa | 0 mm | - | 861 W/m² | - |
| 1777631407 | 18.33° C | 30% | 1027.1 hPa | 0 mm | - | 854 W/m² | - |
| 1777630506 | 18.89° C | 29% | 1027.1 hPa | 0 mm | - | 844 W/m² | - |
| 1777629609 | 18.89° C | 31% | 1027.2 hPa | 0 mm | - | 837 W/m² | - |
| 1777628702 | 18.89° C | 32% | 1027.2 hPa | 0 mm | - | 817 W/m² | - |
| 1777627859 | 18.33° C | 30% | 1027.3 hPa | 0 mm | - | 800 W/m² | - |
| 1777626956 | 18.33° C | 28% | 1027.2 hPa | 0 mm | - | 780 W/m² | - |
| 1777626054 | 18.33° C | 30% | 1027.3 hPa | 0 mm | - | 754 W/m² | - |
| 1777625150 | 17.78° C | 32% | 1027.3 hPa | 0 mm | - | 726 W/m² | - |
| 1777624258 | 17.22° C | 40% | 1027.3 hPa | 0 mm | - | 693 W/m² | - |
| 1777623343 | 16.67° C | 44% | 1027.4 hPa | 0 mm | - | 652 W/m² | - |
| 1777622450 | 16.67° C | 43% | 1027.3 hPa | 0 mm | - | 621 W/m² | - |
* Rain since midnight (hover to see other rain measurements)
** Current wind speed in m/s (hover to see current wind gust speed)